Bartow, FL

6:36 PM EDT on April 25, 2017 (GMT -0400)
Bartow Municipal

Weather History for KBOW - November, 2013

Change the Weather History Date:

Friday, November 29, 2013

  Actual Average Record
Temperature  
Mean Temperature 61 °F -  
Max Temperature 71 °F 77 °F 86 °F (1957)
Min Temperature 51 °F 56 °F 35 °F (1956)
Degree Days  
Heating Degree Days 4    
Growing Degree Days 11 (Base 50)    
Moisture  
Dew Point 51 °F    
Average Humidity 76    
Maximum Humidity 100    
Minimum Humidity 53    
Precipitation  
Precipitation 0.00 in - - ()
Sea Level Pressure  
Sea Level Pressure 30.32 in    
Wind  
Wind Speed 10 mph (NNE)    
Max Wind Speed 18 mph    
Max Gust Speed 25 mph    
Visibility 10 miles    
Events      
Averages and records for this station are not official NWS values.
T = Trace of Precipitation, MM = Missing Value Source: NWS Daily Summary

Daily Weather History Graph

Daily Weather History Graph

Search for Another Location

Airport or City:

Trip Planner

Search our weather history database for the weather conditions in past years. The results will help you decide how hot, cold, wet, or windy it might be!

Date:

Astronomy

Nov. 29, 2013 Rise Set
Actual Time 6:59 AM EST 5:31 PM EST
Civil Twilight 6:34 AM EST 5:56 PM EST
Nautical Twilight 6:05 AM EST 6:25 PM EST
Astronomical Twilight 5:37 AM EST 6:53 PM EST
Moon 3:20 AM EST (11/29) 3:00 PM EST (11/29)
Length of Visible Light 11h 22m
Length of Day
10h 31m
Waning Crescent, 14% of the Moon is Illuminated
Nov 29
Waning Crescent
Dec 2
New
Dec 9
First Quarter
Dec 17
Full
Dec 25
Last Quarter

Hourly Weather History & Observations

Time (EST) Temp. Dew Point Humidity Pressure Visibility Wind Dir Wind Speed Gust Speed Precip Events Conditions
12:15 AM 51.8 °F 48.2 °F 88% 30.34 in 10.0 mi North 6.9 mph - N/A   Mostly Cloudy
12:35 AM 51.8 °F 48.2 °F 88% 30.34 in 10.0 mi North 10.4 mph - N/A   Mostly Cloudy
12:55 AM 51.8 °F 48.2 °F 88% 30.33 in 10.0 mi North 10.4 mph - N/A   Mostly Cloudy
1:15 AM 51.8 °F 48.2 °F 88% 30.33 in 10.0 mi North 10.4 mph - N/A   Mostly Cloudy
1:35 AM 51.8 °F 48.2 °F 88% 30.33 in 10.0 mi North 9.2 mph - N/A   Scattered Clouds
1:55 AM 51.8 °F 48.2 °F 88% 30.33 in 10.0 mi North 11.5 mph 16.1 mph N/A   Scattered Clouds
2:15 AM 51.8 °F 48.2 °F 88% 30.33 in 10.0 mi North 9.2 mph - N/A   Scattered Clouds
2:35 AM 51.8 °F 48.2 °F 88% 30.32 in 10.0 mi NNE 11.5 mph 17.3 mph N/A   Clear
2:55 AM 51.8 °F 48.2 °F 88% 30.32 in 10.0 mi North 12.7 mph - N/A   Clear
3:15 AM 51.8 °F 48.2 °F 88% 30.31 in 10.0 mi North 12.7 mph - N/A   Clear
3:35 AM 51.8 °F 48.2 °F 88% 30.32 in 10.0 mi North 11.5 mph 17.3 mph N/A   Clear
3:55 AM 51.8 °F 50.0 °F 94% 30.32 in 10.0 mi North 9.2 mph - N/A   Clear
4:15 AM 51.8 °F 50.0 °F 94% 30.32 in 10.0 mi North 6.9 mph - N/A   Clear
4:35 AM 51.8 °F 51.8 °F 100% 30.32 in 10.0 mi NNE 10.4 mph - N/A   Clear
4:55 AM 51.8 °F 51.8 °F 100% 30.32 in 10.0 mi NNE 10.4 mph - N/A   Clear
5:15 AM 53.6 °F 51.8 °F 94% 30.32 in 10.0 mi NNE 8.1 mph - N/A   Clear
5:35 AM 53.6 °F 51.8 °F 94% 30.32 in 10.0 mi NNE 11.5 mph 16.1 mph N/A   Partly Cloudy
5:55 AM 53.6 °F 51.8 °F 94% 30.33 in 10.0 mi NNE 8.1 mph - N/A   Scattered Clouds
6:15 AM 53.6 °F 51.8 °F 94% 30.33 in 10.0 mi NNE 10.4 mph - N/A   Partly Cloudy
7:50 AM 55.4 °F 51.8 °F 88% 30.36 in 10.0 mi NNE 10.4 mph - N/A   Mostly Cloudy
8:47 AM 57.2 °F 51.8 °F 82% 30.36 in 10.0 mi NNE 6.9 mph - N/A   Mostly Cloudy
10:47 AM 64.4 °F 53.6 °F 68% 30.37 in 10.0 mi NNE 12.7 mph - N/A   Mostly Cloudy
11:55 AM 66.2 °F 51.8 °F 60% 30.34 in 10.0 mi North 13.8 mph - N/A   Mostly Cloudy
12:47 PM 69.8 °F 51.8 °F 53% 30.32 in 10.0 mi NE 11.5 mph 17.3 mph N/A   Mostly Cloudy
1:50 PM 69.8 °F 51.8 °F 53% 30.30 in 10.0 mi NNE 15.0 mph - N/A   Mostly Cloudy
2:35 PM 69.8 °F 53.6 °F 56% 30.28 in 10.0 mi NNE 15.0 mph - N/A   Clear
2:50 PM 71.6 °F 53.6 °F 53% 30.28 in 10.0 mi NNE 11.5 mph - N/A   Mostly Cloudy
2:55 PM 71.6 °F 53.6 °F 53% 30.28 in 10.0 mi NNE 13.8 mph 17.3 mph N/A   Clear
3:15 PM 71.6 °F 53.6 °F 53% 30.28 in 10.0 mi North 13.8 mph 18.4 mph N/A   Clear
3:35 PM 71.6 °F 53.6 °F 53% 30.28 in 10.0 mi NNE 13.8 mph 19.6 mph N/A   Partly Cloudy
3:55 PM 69.8 °F 53.6 °F 56% 30.29 in 10.0 mi NNE 18.4 mph 25.3 mph N/A   Clear
4:15 PM 69.8 °F 53.6 °F 56% 30.29 in 10.0 mi NNE 16.1 mph 23.0 mph N/A   Scattered Clouds
4:35 PM 68.0 °F 53.6 °F 60% 30.30 in 10.0 mi NE 13.8 mph - N/A   Partly Cloudy
4:55 PM 66.2 °F 53.6 °F 64% 30.30 in 10.0 mi NE 13.8 mph 21.9 mph N/A   Clear
5:15 PM 66.2 °F 53.6 °F 64% 30.30 in 10.0 mi NNE 10.4 mph - N/A   Clear
5:35 PM 64.4 °F 53.6 °F 68% 30.30 in 10.0 mi NE 10.4 mph - N/A   Clear
5:55 PM 64.4 °F 53.6 °F 68% 30.31 in 10.0 mi NNE 9.2 mph 17.3 mph N/A   Clear
6:15 PM 62.6 °F 53.6 °F 72% 30.31 in 10.0 mi NE 8.1 mph - N/A   Clear
6:35 PM 62.6 °F 51.8 °F 68% 30.32 in 10.0 mi NE 9.2 mph - N/A   Clear
6:55 PM 62.6 °F 51.8 °F 68% 30.32 in 10.0 mi NNE 10.4 mph - N/A   Clear
7:15 PM 60.8 °F 51.8 °F 72% 30.32 in 10.0 mi NNE 13.8 mph - N/A   Clear
7:35 PM 60.8 °F 50.0 °F 68% 30.32 in 10.0 mi NNE 11.5 mph - N/A   Clear
7:55 PM 60.8 °F 50.0 °F 68% 30.32 in 10.0 mi NNE 12.7 mph - N/A   Clear
8:15 PM 60.8 °F 50.0 °F 68% 30.33 in 10.0 mi NNE 11.5 mph 16.1 mph N/A   Clear
8:35 PM 59.0 °F 50.0 °F 72% 30.33 in 10.0 mi NNE 11.5 mph - N/A   Clear
8:55 PM 59.0 °F 50.0 °F 72% 30.33 in 10.0 mi North 9.2 mph - N/A   Clear
9:15 PM 57.2 °F 50.0 °F 77% 30.34 in 10.0 mi North 9.2 mph - N/A   Clear
9:35 PM 57.2 °F 50.0 °F 77% 30.35 in 10.0 mi NNE 9.2 mph - N/A   Clear
9:55 PM 57.2 °F 50.0 °F 77% 30.35 in 10.0 mi North 8.1 mph - N/A   Clear
10:15 PM 57.2 °F 50.0 °F 77% 30.35 in 10.0 mi North 11.5 mph - N/A   Clear
10:35 PM 57.2 °F 50.0 °F 77% 30.35 in 10.0 mi North 10.4 mph - N/A   Clear
10:55 PM 55.4 °F 50.0 °F 82% 30.35 in 10.0 mi NNW 8.1 mph - N/A   Clear
11:15 PM 55.4 °F 50.0 °F 82% 30.34 in 10.0 mi North 9.2 mph - N/A   Clear
11:35 PM 55.4 °F 50.0 °F 82% 30.33 in 10.0 mi North 9.2 mph - N/A   Clear
11:55 PM 55.4 °F 50.0 °F 82% 30.33 in 10.0 mi North 10.4 mph 18.4 mph N/A   Clear